7 * 24
多渠道服务支持
IRIDIUM 180 是 IRIDIUM 卫星通信系统的一部分,属于美国 IRIDIUM 公司运营的低轨道卫星星座。该系统由 66 颗工作卫星组成,提供全球范围的语音和数据通信服务。IRIDIUM 180 于 1997 年发射,运行在约 780 公里的近地轨道,设计用于支持手持设备的移动通信。该卫星采用跳频扩频技术,具有抗干扰能力强、覆盖范围广的特点,广泛应用于航空、航海、军事和应急通信等领域。
美国
(US)
| 数据来源 | 国际轨道数据 |
| 星历时间: | 2025-10-28T20:06:27+0800 19小时前 查看轨道信息 |
| 半长轴: | 7155.796km |
| 偏心率: | 0.0002185 |
| 轨道倾角: | 86.393° |
| 近地点辐角 | 89.463° |
| 升交点赤经 | 90.455° |
| 平近点角 | 270.681° |
| 近地点: | 776.097km |
| 远地点: | 779.225km |
| 周期: | 100.403分钟 |
| 每日圈数: | 14.342203 |